Time,TemperatureF,DewpointF,PressureIn,WindDirection,WindDirectionDegrees,WindSpeedMPH,WindSpeedGustMPH,Humidity,HourlyPrecipIn,Conditions,Clouds,dailyrainin,SolarRadiationWatts/m^2,SoftwareType,DateUTC
2013-08-13 00:01:00,79.6,75.0,29.93,NE,52,0.0,0.0,86,0.00,BKN,,0.00,0.0,WeatherDisplay:10.37,2013-08-13 04:01:00,
2013-08-13 00:06:00,79.6,75.4,29.93,ENE,61,0.0,0.0,87,0.00,BKN,,0.00,0.0,WeatherDisplay:10.37,2013-08-13 04:06:00,
2013-08-13 00:11:00,79.6,75.4,29.93,ENE,77,0.0,0.0,87,0.00,BKN,,0.00,0.0,WeatherDisplay:10.37,2013-08-13 04:11:00,
2013-08-13 00:16:00,79.6,75.4,29.93,East,83,0.0,0.0,87,0.00,BKN,,0.00,0.0,WeatherDisplay:10.37,2013-08-13 04:16:00,
2013-08-13 00:21:00,79.6,75.4,29.93,East,83,0.0,1.0,87,0.00,BKN,,0.00,0.0,WeatherDisplay:10.37,2013-08-13 04:21:00,
2013-08-13 00:26:00,79.6,75.4,29.93,East,83,0.0,0.0,87,0.00,BKN,,0.00,0.0,WeatherDisplay:10.37,2013-08-13 04:26:00,
2013-08-13 00:31:00,79.4,75.2,29.93,East,83,0.0,0.0,87,0.00,BKN,,0.00,0.0,WeatherDisplay:10.37,2013-08-13 04:31:00,
2013-08-13 00:36:00,79.4,75.2,29.93,East,83,0.0,0.0,87,0.00,BKN,,0.00,0.0,WeatherDisplay:10.37,2013-08-13 04:36:00,
2013-08-13 00:41:00,79.4,75.2,29.93,East,83,0.0,0.0,87,0.00,BKN,,0.00,0.0,WeatherDisplay:10.37,2013-08-13 04:41:00,
2013-08-13 00:46:00,79.2,75.0,29.93,East,83,0.0,0.0,87,0.00,BKN,,0.00,0.0,WeatherDisplay:10.37,2013-08-13 04:46:00,
2013-08-13 00:51:00,79.2,75.0,29.94,East,83,0.0,0.0,87,0.00,BKN,,0.00,0.0,WeatherDisplay:10.37,2013-08-13 04:51:00,
2013-08-13 00:56:00,79.2,75.3,29.94,East,83,0.0,0.0,88,0.00,BKN,,0.00,0.0,WeatherDisplay:10.37,2013-08-13 04:56:00,
2013-08-13 01:01:00,79.0,75.1,29.94,East,83,0.0,0.0,88,0.00,BKN,,0.00,0.0,WeatherDisplay:10.37,2013-08-13 05:01:00,
2013-08-13 01:11:00,78.8,74.9,29.94,East,83,0.0,0.0,88,0.00,BKN,,0.00,0.0,WeatherDisplay:10.37,2013-08-13 05:11:00,
2013-08-13 01:16:00,78.6,74.7,29.94,East,83,0.0,0.0,88,0.00,BKN,,0.00,0.0,WeatherDisplay:10.37,2013-08-13 05:16:00,
2013-08-13 01:21:00,78.5,74.6,29.95,East,83,0.0,0.0,88,0.00,BKN,,0.00,0.0,WeatherDisplay:10.37,2013-08-13 05:21:00,
2013-08-13 01:26:00,78.3,74.5,29.95,East,83,0.0,0.0,88,0.00,BKN,,0.00,0.0,WeatherDisplay:10.37,2013-08-13 05:26:00,
2013-08-13 01:31:00,78.1,74.3,29.95,East,83,0.0,0.0,88,0.00,BKN,,0.00,0.0,WeatherDisplay:10.37,2013-08-13 05:31:00,
2013-08-13 01:36:00,77.9,74.1,29.94,East,83,0.0,0.0,88,0.00,BKN,,0.00,0.0,WeatherDisplay:10.37,2013-08-13 05:36:00,
2013-08-13 01:41:00,77.9,74.1,29.94,East,83,0.0,0.0,88,0.00,BKN,,0.00,0.0,WeatherDisplay:10.37,2013-08-13 05:41:00,
2013-08-13 01:46:00,77.7,73.9,29.94,East,83,0.0,0.0,88,0.00,BKN,,0.00,0.0,WeatherDisplay:10.37,2013-08-13 05:46:00,
2013-08-13 01:51:00,77.6,73.8,29.93,East,83,0.0,0.0,88,0.00,BKN,,0.00,0.0,WeatherDisplay:10.37,2013-08-13 05:51:00,
2013-08-13 01:56:00,77.5,74.0,29.93,East,83,0.0,0.0,89,0.00,BKN,,0.00,0.0,WeatherDisplay:10.37,2013-08-13 05:56:00,
2013-08-13 02:01:00,77.4,73.9,29.93,East,83,0.0,0.0,89,0.00,-RA,,0.00,0.0,WeatherDisplay:10.37,2013-08-13 06:01:00,
2013-08-13 02:11:00,77.2,73.7,29.92,East,83,0.0,0.0,89,0.00,-RA,,0.00,0.0,WeatherDisplay:10.37,2013-08-13 06:11:00,
2013-08-13 02:16:00,77.2,73.7,29.92,East,83,0.0,0.0,89,0.00,-RA,,0.00,0.0,WeatherDisplay:10.37,2013-08-13 06:16:00,
2013-08-13 02:21:00,77.0,73.5,29.92,East,83,0.0,0.0,89,0.00,-RA,,0.00,0.0,WeatherDisplay:10.37,2013-08-13 06:21:00,
2013-08-13 02:26:00,77.0,73.5,29.92,East,83,0.0,0.0,89,0.00,-RA,,0.00,0.0,WeatherDisplay:10.37,2013-08-13 06:26:00,
2013-08-13 02:31:00,77.0,73.8,29.92,East,83,0.0,0.0,90,0.00,-RA,,0.00,0.0,WeatherDisplay:10.37,2013-08-13 06:31:00,
2013-08-13 02:36:00,77.0,73.8,29.91,East,83,0.0,0.0,90,0.00,-RA,,0.00,0.0,WeatherDisplay:10.37,2013-08-13 06:36:00,
2013-08-13 02:41:00,76.8,73.6,29.91,East,83,0.0,0.0,90,0.00,-RA,,0.00,0.0,WeatherDisplay:10.37,2013-08-13 06:41:00,
2013-08-13 02:46:00,76.8,73.6,29.91,East,83,0.0,0.0,90,0.00,-RA,,0.00,0.0,WeatherDisplay:10.37,2013-08-13 06:46:00,
2013-08-13 02:51:00,76.8,73.6,29.92,East,83,0.0,0.0,90,0.00,-RA,,0.00,0.0,WeatherDisplay:10.37,2013-08-13 06:51:00,
2013-08-13 02:56:00,76.8,73.6,29.92,East,83,0.0,0.0,90,0.00,-RA,,0.00,0.0,WeatherDisplay:10.37,2013-08-13 06:56:00,
2013-08-13 03:01:00,76.8,73.6,29.92,East,83,0.0,0.0,90,0.00,BKN,,0.00,0.0,WeatherDisplay:10.37,2013-08-13 07:01:00,
2013-08-13 03:11:00,76.7,73.9,29.95,WSW,258,0.0,1.0,91,0.00,BKN,,0.00,0.0,WeatherDisplay:10.37,2013-08-13 07:11:00,
2013-08-13 03:16:00,76.5,73.7,29.95,WSW,246,0.0,0.0,91,0.01,RA,,0.01,0.0,WeatherDisplay:10.37,2013-08-13 07:16:00,
2013-08-13 03:21:00,76.3,73.1,29.92,West,275,0.0,0.0,90,0.01,RA,,0.01,0.0,WeatherDisplay:10.37,2013-08-13 07:21:00,
2013-08-13 03:26:00,76.1,73.0,29.92,West,277,0.0,0.0,90,0.01,BKN,,0.01,0.0,WeatherDisplay:10.37,2013-08-13 07:26:00,
2013-08-13 03:31:00,76.0,72.9,29.92,West,277,0.0,0.0,90,0.01,BKN,,0.01,0.0,WeatherDisplay:10.37,2013-08-13 07:31:00,
2013-08-13 03:36:00,75.8,72.7,29.91,West,277,0.0,0.0,90,0.01,BKN,,0.01,0.0,WeatherDisplay:10.37,2013-08-13 07:36:00,
2013-08-13 03:41:00,75.8,72.7,29.91,West,277,0.0,0.0,90,0.01,BKN,,0.01,0.0,WeatherDisplay:10.37,2013-08-13 07:41:00,
2013-08-13 03:46:00,75.6,72.5,29.91,West,277,0.0,0.0,90,0.03,RA,,0.03,0.0,WeatherDisplay:10.37,2013-08-13 07:46:00,
2013-08-13 03:51:00,75.6,72.5,29.90,West,277,0.0,0.0,90,0.04,RA,,0.04,0.0,WeatherDisplay:10.37,2013-08-13 07:51:00,
2013-08-13 03:56:00,75.4,72.6,29.90,West,277,0.0,0.0,91,0.05,RA,,0.05,0.0,WeatherDisplay:10.37,2013-08-13 07:56:00,
2013-08-13 04:01:00,75.4,72.6,29.90,West,277,0.0,0.0,91,0.06,-RA,,0.06,0.0,WeatherDisplay:10.37,2013-08-13 08:01:00,
2013-08-13 04:11:00,75.3,72.8,29.89,West,277,0.0,0.0,92,0.07,-RA,,0.07,0.0,WeatherDisplay:10.37,2013-08-13 08:11:00,
2013-08-13 04:16:00,75.3,72.8,29.89,West,277,0.0,0.0,92,0.06,-RA,,0.07,0.0,WeatherDisplay:10.37,2013-08-13 08:16:00,
2013-08-13 04:21:00,75.1,72.6,29.88,West,277,0.0,0.0,92,0.06,-RA,,0.07,0.0,WeatherDisplay:10.37,2013-08-13 08:21:00,
2013-08-13 04:26:00,75.1,72.6,29.88,West,278,0.0,0.0,92,0.06,-RA,,0.07,0.0,WeatherDisplay:10.37,2013-08-13 08:26:00,
2013-08-13 04:31:00,74.9,72.5,29.88,West,279,0.0,0.0,92,0.06,-RA,,0.07,0.0,WeatherDisplay:10.37,2013-08-13 08:31:00,
2013-08-13 04:36:00,74.9,72.4,29.87,West,279,0.0,0.0,92,0.06,-RA,,0.07,0.0,WeatherDisplay:10.37,2013-08-13 08:36:00,
2013-08-13 04:41:00,74.9,72.4,29.87,West,279,0.0,0.0,92,0.06,-RA,,0.07,0.0,WeatherDisplay:10.37,2013-08-13 08:41:00,
2013-08-13 04:46:00,74.7,72.2,29.87,West,279,0.0,0.0,92,0.04,-RA,,0.07,0.0,WeatherDisplay:10.37,2013-08-13 08:46:00,
2013-08-13 04:51:00,74.7,72.2,29.87,West,279,0.0,0.0,92,0.03,-RA,,0.07,0.0,WeatherDisplay:10.37,2013-08-13 08:51:00,
2013-08-13 04:56:00,74.6,72.1,29.87,West,279,0.0,0.0,92,0.02,-RA,,0.07,0.0,WeatherDisplay:10.37,2013-08-13 08:56:00,
2013-08-13 05:01:00,74.6,72.1,29.87,West,279,0.0,0.0,92,0.01,SCT,,0.07,0.0,WeatherDisplay:10.37,2013-08-13 09:01:00,
2013-08-13 05:11:00,74.4,71.9,29.87,West,279,0.0,0.0,92,0.00,SCT,,0.07,0.0,WeatherDisplay:10.37,2013-08-13 09:11:00,
2013-08-13 05:16:00,74.4,71.9,29.87,West,279,0.0,0.0,92,0.00,SCT,,0.07,0.0,WeatherDisplay:10.37,2013-08-13 09:16:00,
2013-08-13 05:21:00,74.4,71.9,29.86,West,279,0.0,0.0,92,0.00,SCT,,0.07,0.0,WeatherDisplay:10.37,2013-08-13 09:21:00,
2013-08-13 05:26:00,74.2,71.7,29.86,West,279,0.0,0.0,92,0.00,SCT,,0.07,0.0,WeatherDisplay:10.37,2013-08-13 09:26:00,
2013-08-13 05:31:00,74.2,71.7,29.86,West,279,0.0,0.0,92,0.00,SCT,,0.07,0.0,WeatherDisplay:10.37,2013-08-13 09:31:00,
2013-08-13 05:36:00,74.2,71.7,29.86,West,279,0.0,0.0,92,0.00,SCT,,0.07,0.0,WeatherDisplay:10.37,2013-08-13 09:36:00,
2013-08-13 05:41:00,74.0,71.8,29.86,West,279,0.0,0.0,93,0.00,SCT,,0.07,0.0,WeatherDisplay:10.37,2013-08-13 09:41:00,
2013-08-13 05:46:00,74.0,71.8,29.86,West,279,0.0,0.0,93,0.00,SCT,,0.07,0.0,WeatherDisplay:10.37,2013-08-13 09:46:00,
2013-08-13 05:51:00,74.0,71.8,29.86,West,279,0.0,0.0,93,0.00,SCT,,0.07,0.0,WeatherDisplay:10.37,2013-08-13 09:51:00,
2013-08-13 05:56:00,74.0,71.8,29.86,West,279,0.0,0.0,93,0.00,SCT,,0.07,0.0,WeatherDisplay:10.37,2013-08-13 09:56:00,
2013-08-13 06:01:00,74.0,72.2,29.86,West,279,0.0,0.0,94,0.00,SCT,,0.07,0.0,WeatherDisplay:10.37,2013-08-13 10:01:00,
2013-08-13 06:11:00,74.2,72.3,29.86,ENE,60,0.0,0.0,94,0.00,SCT,,0.07,0.0,WeatherDisplay:10.37,2013-08-13 10:11:00,
2013-08-13 06:16:00,74.2,72.4,29.86,ENE,68,0.0,0.0,94,0.00,SCT,,0.07,0.0,WeatherDisplay:10.37,2013-08-13 10:16:00,
2013-08-13 06:21:00,74.2,72.4,29.87,ENE,65,0.0,0.0,94,0.00,SCT,,0.07,0.0,WeatherDisplay:10.37,2013-08-13 10:21:00,
2013-08-13 06:26:00,74.2,72.7,29.87,NE,56,0.0,0.0,95,0.00,SCT,,0.07,0.0,WeatherDisplay:10.37,2013-08-13 10:26:00,
2013-08-13 06:31:00,74.2,72.7,29.87,NE,43,0.0,0.0,95,0.00,SCT,,0.07,0.0,WeatherDisplay:10.37,2013-08-13 10:31:00,
2013-08-13 06:36:00,74.2,72.7,29.87,NE,38,0.0,0.0,95,0.00,SCT,,0.07,0.0,WeatherDisplay:10.37,2013-08-13 10:36:00,
2013-08-13 06:41:00,74.2,72.7,29.87,NE,38,0.0,0.0,95,0.00,SCT,,0.07,0.0,WeatherDisplay:10.37,2013-08-13 10:41:00,
2013-08-13 06:46:00,74.2,72.7,29.87,North,354,0.0,0.0,95,0.00,BKN,,0.07,0.0,WeatherDisplay:10.37,2013-08-13 10:46:00,
2013-08-13 06:51:00,74.2,72.7,29.87,NW,326,0.0,0.0,95,0.00,BKN,,0.07,5.8,WeatherDisplay:10.37,2013-08-13 10:51:00,
2013-08-13 06:56:00,74.2,72.7,29.87,NNW,334,0.0,0.0,95,0.00,BKN,,0.07,8.1,WeatherDisplay:10.37,2013-08-13 10:56:00,
2013-08-13 07:01:00,74.2,72.7,29.87,North,353,0.0,0.0,95,0.00,BKN,,0.07,12.7,WeatherDisplay:10.37,2013-08-13 11:01:00,
2013-08-13 07:11:00,74.0,72.5,29.87,NNE,23,0.0,0.0,95,0.00,BKN,,0.07,16.1,WeatherDisplay:10.37,2013-08-13 11:11:00,
2013-08-13 07:16:00,74.0,72.8,29.87,NNW,347,0.0,0.0,96,0.00,BKN,,0.07,18.4,WeatherDisplay:10.37,2013-08-13 11:16:00,
2013-08-13 07:21:00,74.0,72.8,29.87,North,355,0.0,0.0,96,0.00,BKN,,0.07,21.9,WeatherDisplay:10.37,2013-08-13 11:21:00,
2013-08-13 07:26:00,74.0,72.8,29.87,NNE,14,0.0,0.0,96,0.00,BKN,,0.07,26.4,WeatherDisplay:10.37,2013-08-13 11:26:00,
2013-08-13 07:31:00,74.0,72.8,29.87,NNE,18,0.0,0.0,96,0.00,BKN,,0.07,26.4,WeatherDisplay:10.37,2013-08-13 11:31:00,
2013-08-13 07:41:00,74.0,72.8,29.87,NNE,33,0.0,0.0,96,0.00,BKN,,0.07,32.2,WeatherDisplay:10.37,2013-08-13 11:41:00,
2013-08-13 07:46:00,74.0,72.8,29.87,NE,55,0.0,0.0,96,0.00,BKN,,0.07,38.0,WeatherDisplay:10.37,2013-08-13 11:46:00,
2013-08-13 07:51:00,74.2,73.0,29.87,NNE,28,0.0,0.0,96,0.00,BKN,,0.07,34.5,WeatherDisplay:10.37,2013-08-13 11:51:00,
2013-08-13 07:56:00,74.2,73.0,29.87,North,1,0.0,0.0,96,0.00,BKN,,0.07,87.4,WeatherDisplay:10.37,2013-08-13 11:56:00,
2013-08-13 08:01:00,74.2,73.0,29.87,North,357,0.0,0.0,96,0.00,SCT,,0.07,109.3,WeatherDisplay:10.37,2013-08-13 12:01:00,
2013-08-13 08:11:00,74.6,73.4,29.87,North,360,0.0,0.0,96,0.00,SCT,,0.07,244.9,WeatherDisplay:10.37,2013-08-13 12:11:00,
2013-08-13 08:16:00,74.6,73.4,29.87,NNE,26,0.0,0.0,96,0.00,SCT,,0.07,175.9,WeatherDisplay:10.37,2013-08-13 12:16:00,
2013-08-13 08:21:00,74.7,73.5,29.87,NE,51,0.0,0.0,96,0.00,SCT,,0.07,64.4,WeatherDisplay:10.37,2013-08-13 12:21:00,
2013-08-13 08:26:00,74.9,73.7,29.87,NE,48,0.0,0.0,96,0.00,SCT,,0.07,163.3,WeatherDisplay:10.37,2013-08-13 12:26:00,
2013-08-13 08:31:00,75.1,73.9,29.87,NE,46,0.0,0.0,96,0.00,SCT,,0.07,104.7,WeatherDisplay:10.37,2013-08-13 12:31:00,
2013-08-13 08:36:00,75.3,74.1,29.87,NNE,26,0.0,0.0,96,0.00,SCT,,0.07,343.9,WeatherDisplay:10.37,2013-08-13 12:36:00,
2013-08-13 08:41:00,75.4,74.2,29.87,North,8,0.0,0.0,96,0.00,SCT,,0.07,359.9,WeatherDisplay:10.37,2013-08-13 12:41:00,
2013-08-13 08:46:00,75.8,74.6,29.87,NE,43,0.0,0.0,96,0.00,SCT,,0.07,343.9,WeatherDisplay:10.37,2013-08-13 12:46:00,
2013-08-13 08:51:00,76.1,74.8,29.87,NE,43,0.0,0.0,96,0.00,SCT,,0.07,426.6,WeatherDisplay:10.37,2013-08-13 12:51:00,
2013-08-13 08:56:00,76.4,75.5,29.87,NE,39,0.0,0.0,97,0.00,SCT,,0.07,538.2,WeatherDisplay:10.37,2013-08-13 12:56:00,
2013-08-13 09:01:00,76.7,75.5,29.87,ENE,75,0.0,0.0,96,0.00,BKN,,0.07,485.3,WeatherDisplay:10.37,2013-08-13 13:01:00,
2013-08-13 09:11:00,77.1,75.9,29.87,ENE,75,0.0,0.0,96,0.00,BKN,,0.07,640.5,WeatherDisplay:10.37,2013-08-13 13:11:00,
2013-08-13 09:16:00,77.6,76.4,29.87,WNW,294,0.0,0.0,96,0.00,SCT,,0.07,519.8,WeatherDisplay:10.37,2013-08-13 13:16:00,
2013-08-13 09:21:00,77.7,76.2,29.88,WNW,283,0.0,0.0,95,0.00,SCT,,0.07,733.7,WeatherDisplay:10.37,2013-08-13 13:21:00,
2013-08-13 09:26:00,78.1,76.2,29.88,NW,307,0.0,0.0,94,0.00,SCT,,0.07,290.9,WeatherDisplay:10.37,2013-08-13 13:26:00,
2013-08-13 09:31:00,78.3,76.4,29.88,NW,309,0.0,0.0,94,0.00,SCT,,0.07,263.4,WeatherDisplay:10.37,2013-08-13 13:31:00,
2013-08-13 09:36:00,78.3,75.8,29.89,NNW,344,0.0,0.0,92,0.00,SCT,,0.07,312.8,WeatherDisplay:10.37,2013-08-13 13:36:00,
2013-08-13 09:46:00,78.5,75.7,29.89,NW,311,0.0,0.0,91,0.00,BKN,,0.07,269.1,WeatherDisplay:10.37,2013-08-13 13:46:00,
2013-08-13 09:51:00,78.8,75.9,29.89,West,277,0.0,0.0,91,0.00,BKN,,0.07,296.7,WeatherDisplay:10.37,2013-08-13 13:51:00,
2013-08-13 09:56:00,79.0,75.8,29.89,WNW,290,0.0,0.0,90,0.00,BKN,,0.07,376.1,WeatherDisplay:10.37,2013-08-13 13:56:00,
2013-08-13 10:01:00,79.2,75.7,29.89,WNW,301,0.0,0.0,89,0.00,BKN,,0.07,224.3,WeatherDisplay:10.37,2013-08-13 14:01:00,
2013-08-13 10:11:00,79.4,75.5,29.89,East,99,0.0,0.0,88,0.00,BKN,,0.07,261.1,WeatherDisplay:10.37,2013-08-13 14:11:00,
2013-08-13 10:16:00,79.6,75.7,29.89,ENE,65,0.0,0.0,88,0.00,BKN,,0.07,228.8,WeatherDisplay:10.37,2013-08-13 14:16:00,
2013-08-13 10:21:00,79.6,75.8,29.89,NNW,330,0.0,0.0,88,0.00,BKN,,0.07,202.4,WeatherDisplay:10.37,2013-08-13 14:21:00,
2013-08-13 10:31:00,80.1,76.6,29.89,NNW,336,0.0,0.0,89,0.00,BKN,,0.07,331.2,WeatherDisplay:10.37,2013-08-13 14:31:00,
2013-08-13 10:36:00,80.3,76.4,29.89,NW,322,0.0,0.0,88,0.00,BKN,,0.07,509.4,WeatherDisplay:10.37,2013-08-13 14:36:00,
2013-08-13 10:41:00,80.7,76.5,29.89,WNW,287,0.0,0.0,87,0.00,BKN,,0.07,325.4,WeatherDisplay:10.37,2013-08-13 14:41:00,
2013-08-13 10:46:00,81.2,76.9,29.89,WNW,287,0.0,0.0,87,0.00,BKN,,0.07,576.1,WeatherDisplay:10.37,2013-08-13 14:46:00,
2013-08-13 10:51:00,81.8,76.8,29.89,NNE,28,0.0,0.0,85,0.00,BKN,,0.07,837.2,WeatherDisplay:10.37,2013-08-13 14:51:00,
2013-08-13 10:56:00,82.4,77.5,29.89,East,86,0.0,0.0,85,0.00,BKN,,0.07,912.0,WeatherDisplay:10.37,2013-08-13 14:56:00,
2013-08-13 11:01:00,82.6,76.5,29.89,WSW,237,0.0,0.0,82,0.00,BKN,,0.07,889.0,WeatherDisplay:10.37,2013-08-13 15:01:00,
2013-08-13 11:11:00,83.8,76.6,29.89,WSW,258,0.0,0.0,79,0.00,BKN,,0.07,923.5,WeatherDisplay:10.37,2013-08-13 15:11:00,
2013-08-13 11:16:00,84.4,77.2,29.89,NW,304,0.0,0.0,79,0.00,BKN,,0.07,933.8,WeatherDisplay:10.37,2013-08-13 15:16:00,
2013-08-13 11:21:00,84.4,76.8,29.89,ENE,59,0.0,0.0,78,0.00,BKN,,0.07,917.7,WeatherDisplay:10.37,2013-08-13 15:21:00,
2013-08-13 11:26:00,84.7,77.1,29.89,ENE,57,0.0,0.0,78,0.00,BKN,,0.07,952.2,WeatherDisplay:10.37,2013-08-13 15:26:00,
2013-08-13 11:31:00,85.1,77.1,29.89,NW,308,0.0,0.0,77,0.00,BKN,,0.07,907.4,WeatherDisplay:10.37,2013-08-13 15:31:00,
2013-08-13 11:36:00,85.3,76.9,29.89,West,275,0.0,0.0,76,0.00,BKN,,0.07,917.7,WeatherDisplay:10.37,2013-08-13 15:36:00,
2013-08-13 11:41:00,85.7,77.3,29.89,WNW,285,0.0,0.0,76,0.00,BKN,,0.07,922.3,WeatherDisplay:10.37,2013-08-13 15:41:00,
2013-08-13 11:46:00,86.0,77.2,29.89,North,353,0.0,0.0,75,0.00,BKN,,0.07,966.0,WeatherDisplay:10.37,2013-08-13 15:46:00,
2013-08-13 11:51:00,86.1,77.2,29.88,NNW,332,0.0,0.0,75,0.00,BKN,,0.07,899.3,WeatherDisplay:10.37,2013-08-13 15:51:00,
2013-08-13 11:56:00,86.1,76.0,29.88,NW,318,0.0,0.0,72,0.00,BKN,,0.07,981.0,WeatherDisplay:10.37,2013-08-13 15:56:00,
2013-08-13 12:01:00,86.5,77.6,29.88,East,82,0.0,0.0,75,0.00,BKN,,0.07,997.0,WeatherDisplay:10.37,2013-08-13 16:01:00,
2013-08-13 12:11:00,86.5,78.0,29.88,SSE,168,0.0,0.0,76,0.00,BKN,,0.07,1081.0,WeatherDisplay:10.37,2013-08-13 16:11:00,
2013-08-13 12:16:00,86.5,77.2,29.88,West,274,0.0,0.0,74,0.00,BKN,,0.07,997.0,WeatherDisplay:10.37,2013-08-13 16:16:00,
2013-08-13 12:21:00,86.5,76.4,29.87,NNW,336,0.0,0.0,72,0.00,BKN,,0.07,1021.2,WeatherDisplay:10.37,2013-08-13 16:21:00,
2013-08-13 12:26:00,87.0,77.3,29.87,NE,52,0.0,0.0,73,0.00,BKN,,0.07,1014.3,WeatherDisplay:10.37,2013-08-13 16:26:00,
2013-08-13 12:31:00,87.1,76.6,29.87,WNW,302,0.0,0.0,71,0.00,BKN,,0.07,1136.2,WeatherDisplay:10.37,2013-08-13 16:31:00,
2013-08-13 12:36:00,87.1,77.4,29.86,WNW,283,0.0,0.0,73,0.00,BKN,,0.07,1139.7,WeatherDisplay:10.37,2013-08-13 16:36:00,
2013-08-13 12:41:00,87.4,77.3,29.86,West,281,0.0,0.0,72,0.00,BKN,,0.07,226.6,WeatherDisplay:10.37,2013-08-13 16:41:00,
2013-08-13 12:46:00,87.4,76.0,29.86,West,268,0.0,0.0,69,0.00,BKN,,0.07,1071.8,WeatherDisplay:10.37,2013-08-13 16:46:00,
2013-08-13 12:51:00,88.0,78.3,29.85,West,275,0.0,0.0,73,0.00,BKN,,0.07,1106.3,WeatherDisplay:10.37,2013-08-13 16:51:00,
2013-08-13 12:56:00,88.4,76.5,29.85,West,268,0.0,0.0,68,0.00,BKN,,0.07,1045.3,WeatherDisplay:10.37,2013-08-13 16:56:00,
2013-08-13 13:01:00,88.6,76.7,29.85,NNW,333,0.0,0.0,68,0.00,BKN,,0.07,1063.8,WeatherDisplay:10.37,2013-08-13 17:01:00,
2013-08-13 13:16:00,88.0,77.4,29.84,West,277,0.0,0.0,71,0.00,BKN,,0.07,256.4,WeatherDisplay:10.37,2013-08-13 17:16:00,
2013-08-13 13:21:00,87.8,77.6,29.84,WNW,287,0.0,0.0,72,0.00,BKN,,0.07,1198.3,WeatherDisplay:10.37,2013-08-13 17:21:00,
2013-08-13 13:26:00,88.0,77.4,29.84,West,270,0.0,0.0,71,0.00,BKN,,0.07,1061.5,WeatherDisplay:10.37,2013-08-13 17:26:00,
2013-08-13 13:31:00,88.5,77.5,29.84,WSW,258,0.0,0.0,70,0.00,BKN,,0.07,1032.7,WeatherDisplay:10.37,2013-08-13 17:31:00,
2013-08-13 13:36:00,89.0,75.7,29.84,West,271,0.0,0.0,65,0.00,BKN,,0.07,963.7,WeatherDisplay:10.37,2013-08-13 17:36:00,
2013-08-13 13:41:00,89.3,76.9,29.84,WNW,288,0.0,0.0,67,0.00,BKN,,0.07,952.2,WeatherDisplay:10.37,2013-08-13 17:41:00,
2013-08-13 13:51:00,89.7,76.4,29.83,North,351,0.0,0.0,65,0.00,BKN,,0.07,869.4,WeatherDisplay:10.37,2013-08-13 17:51:00,
2013-08-13 13:56:00,89.9,76.5,29.83,NNW,335,0.0,0.0,65,0.00,BKN,,0.07,897.0,WeatherDisplay:10.37,2013-08-13 17:56:00,
2013-08-13 14:01:00,89.9,76.6,29.83,WNW,295,0.0,0.0,65,0.00,BKN,,0.07,952.2,WeatherDisplay:10.37,2013-08-13 18:01:00,
2013-08-13 14:11:00,90.3,76.9,29.82,WNW,291,0.0,0.0,65,0.00,BKN,,0.07,1077.5,WeatherDisplay:10.37,2013-08-13 18:11:00,
2013-08-13 14:21:00,90.7,77.3,29.82,North,359,0.0,0.0,65,0.00,BKN,,0.07,1006.3,WeatherDisplay:10.37,2013-08-13 18:21:00,
2013-08-13 14:26:00,90.5,78.0,29.82,NW,321,0.0,0.0,67,0.00,BKN,,0.07,1018.9,WeatherDisplay:10.37,2013-08-13 18:26:00,
2013-08-13 14:31:00,90.7,76.8,29.82,West,259,0.0,0.0,64,0.00,BKN,,0.07,1122.4,WeatherDisplay:10.37,2013-08-13 18:31:00,
2013-08-13 14:36:00,91.2,78.2,29.81,East,86,0.0,0.0,66,0.00,BKN,,0.07,1097.1,WeatherDisplay:10.37,2013-08-13 18:36:00,
2013-08-13 14:46:00,90.7,77.8,29.81,NW,317,0.0,0.0,66,0.00,BKN,,0.07,464.6,WeatherDisplay:10.37,2013-08-13 18:46:00,
2013-08-13 14:51:00,90.5,76.2,29.81,NNW,328,0.0,0.0,63,0.00,BKN,,0.07,362.3,WeatherDisplay:10.37,2013-08-13 18:51:00,
2013-08-13 14:56:00,90.3,76.9,29.81,ENE,69,0.0,0.0,65,0.00,BKN,,0.07,333.5,WeatherDisplay:10.37,2013-08-13 18:56:00,
2013-08-13 15:01:00,90.1,75.8,29.81,SE,143,0.0,0.0,63,0.00,BKN,,0.07,493.4,WeatherDisplay:10.37,2013-08-13 19:01:00,
2013-08-13 15:11:00,89.7,76.4,29.81,West,270,0.0,0.0,65,0.00,BKN,,0.07,335.8,WeatherDisplay:10.37,2013-08-13 19:11:00,
2013-08-13 15:16:00,89.5,76.2,29.81,West,281,0.0,0.0,65,0.00,BKN,,0.07,389.9,WeatherDisplay:10.37,2013-08-13 19:16:00,
2013-08-13 15:21:00,89.3,76.9,29.79,WNW,287,0.0,0.0,67,0.00,BKN,,0.07,357.6,WeatherDisplay:10.37,2013-08-13 19:21:00,
2013-08-13 15:26:00,89.0,77.5,29.79,West,278,0.0,0.0,69,0.00,BKN,,0.07,204.7,WeatherDisplay:10.37,2013-08-13 19:26:00,
2013-08-13 15:31:00,88.8,78.6,29.79,West,276,0.0,0.0,72,0.00,BKN,,0.07,784.3,WeatherDisplay:10.37,2013-08-13 19:31:00,
2013-08-13 15:36:00,88.8,78.2,29.79,WSW,247,0.0,0.0,71,0.00,BKN,,0.07,763.6,WeatherDisplay:10.37,2013-08-13 19:36:00,
2013-08-13 15:41:00,89.0,77.1,29.79,WSW,239,0.0,0.0,68,0.00,BKN,,0.07,707.3,WeatherDisplay:10.37,2013-08-13 19:41:00,
2013-08-13 15:46:00,89.0,78.4,29.79,WSW,245,0.0,0.0,71,0.00,BKN,,0.07,752.1,WeatherDisplay:10.37,2013-08-13 19:46:00,
2013-08-13 15:51:00,89.0,76.6,29.78,WSW,250,0.0,0.0,67,0.00,BKN,,0.07,788.9,WeatherDisplay:10.37,2013-08-13 19:51:00,
2013-08-13 15:56:00,89.3,77.8,29.78,SE,146,0.0,0.0,69,0.00,BKN,,0.07,677.4,WeatherDisplay:10.37,2013-08-13 19:56:00,
2013-08-13 16:01:00,89.3,77.8,29.78,SW,222,0.0,0.0,69,0.00,BKN,,0.07,755.5,WeatherDisplay:10.37,2013-08-13 20:01:00,
2013-08-13 16:11:00,89.4,76.1,29.78,NW,311,0.0,0.0,65,0.00,BKN,,0.07,798.1,WeatherDisplay:10.37,2013-08-13 20:11:00,
2013-08-13 16:16:00,89.3,76.4,29.78,North,355,0.0,0.0,66,0.00,BKN,,0.07,760.1,WeatherDisplay:10.37,2013-08-13 20:16:00,
2013-08-13 16:21:00,89.3,76.4,29.78,NW,324,0.0,0.0,66,0.00,BKN,,0.07,680.8,WeatherDisplay:10.37,2013-08-13 20:21:00,
2013-08-13 16:26:00,89.3,76.9,29.78,NW,309,0.0,0.0,67,0.00,BKN,,0.07,715.3,WeatherDisplay:10.37,2013-08-13 20:26:00,
2013-08-13 16:31:00,89.3,76.9,29.78,NW,304,0.0,0.0,67,0.00,BKN,,0.07,659.0,WeatherDisplay:10.37,2013-08-13 20:31:00,
2013-08-13 16:36:00,89.3,76.9,29.78,SW,233,0.0,0.0,67,0.00,BKN,,0.07,131.1,WeatherDisplay:10.37,2013-08-13 20:36:00,
2013-08-13 16:41:00,89.5,77.5,29.78,South,189,0.0,0.0,68,0.00,BKN,,0.07,125.3,WeatherDisplay:10.37,2013-08-13 20:41:00,
2013-08-13 16:46:00,89.3,76.4,29.78,West,267,0.0,0.0,66,0.00,BKN,,0.07,129.9,WeatherDisplay:10.37,2013-08-13 20:46:00,
2013-08-13 16:51:00,89.3,76.9,29.78,WNW,303,0.0,0.0,67,0.00,BKN,,0.07,101.2,WeatherDisplay:10.37,2013-08-13 20:51:00,
2013-08-13 16:56:00,89.3,77.8,29.78,WNW,302,0.0,0.0,69,0.02,RA,,0.09,82.8,WeatherDisplay:10.37,2013-08-13 20:56:00,
2013-08-13 17:01:00,88.8,78.6,29.78,WNW,293,0.0,0.0,72,0.04,RA,,0.11,58.6,WeatherDisplay:10.37,2013-08-13 21:01:00,
2013-08-13 17:11:00,87.1,77.3,29.79,NW,308,0.0,0.0,73,0.04,BKN,,0.11,189.8,WeatherDisplay:10.37,2013-08-13 21:11:00,
2013-08-13 17:16:00,86.2,77.4,29.79,NW,315,0.0,0.0,75,0.04,BKN,,0.11,194.3,WeatherDisplay:10.37,2013-08-13 21:16:00,
2013-08-13 17:21:00,85.4,76.9,29.78,NW,315,0.0,0.0,76,0.04,BKN,,0.11,186.3,WeatherDisplay:10.37,2013-08-13 21:21:00,
2013-08-13 17:26:00,84.6,77.4,29.78,NW,315,0.0,0.0,79,0.04,BKN,,0.11,232.3,WeatherDisplay:10.37,2013-08-13 21:26:00,
2013-08-13 17:31:00,84.0,77.5,29.78,NW,315,0.0,0.0,81,0.04,BKN,,0.11,402.5,WeatherDisplay:10.37,2013-08-13 21:31:00,
2013-08-13 17:36:00,83.7,78.3,29.77,NW,315,0.0,0.0,84,0.04,BKN,,0.11,389.9,WeatherDisplay:10.37,2013-08-13 21:36:00,
2013-08-13 17:41:00,84.0,79.4,29.77,NW,315,0.0,0.0,86,0.04,BKN,,0.11,357.6,WeatherDisplay:10.37,2013-08-13 21:41:00,
2013-08-13 17:46:00,84.2,79.5,29.77,NW,315,0.0,0.0,86,0.04,BKN,,0.11,335.8,WeatherDisplay:10.37,2013-08-13 21:46:00,
2013-08-13 17:51:00,84.3,79.3,29.77,NW,315,0.0,0.0,85,0.04,BKN,,0.11,151.8,WeatherDisplay:10.37,2013-08-13 21:51:00,
2013-08-13 17:56:00,84.5,79.5,29.77,NW,315,0.0,0.0,85,0.02,BKN,,0.11,95.5,WeatherDisplay:10.37,2013-08-13 21:56:00,
2013-08-13 18:01:00,84.5,79.1,29.77,NW,315,0.0,0.0,84,0.00,BKN,,0.11,125.3,WeatherDisplay:10.37,2013-08-13 22:01:00,
2013-08-13 18:11:00,84.7,79.3,29.77,NW,315,0.0,0.0,84,0.00,BKN,,0.11,141.4,WeatherDisplay:10.37,2013-08-13 22:11:00,
2013-08-13 18:16:00,84.7,79.3,29.77,NW,315,0.0,0.0,84,0.00,BKN,,0.11,111.5,WeatherDisplay:10.37,2013-08-13 22:16:00,
2013-08-13 18:21:00,84.7,79.3,29.77,NW,315,0.0,0.0,84,0.00,BKN,,0.11,34.5,WeatherDisplay:10.37,2013-08-13 22:21:00,
2013-08-13 18:26:00,84.7,79.7,29.77,NW,315,0.0,0.0,85,0.00,BKN,,0.11,54.0,WeatherDisplay:10.37,2013-08-13 22:26:00,
2013-08-13 18:31:00,84.7,79.3,29.77,NW,315,0.0,0.0,84,0.00,BKN,,0.11,133.4,WeatherDisplay:10.37,2013-08-13 22:31:00,
2013-08-13 18:36:00,84.7,79.7,29.77,NW,315,0.0,0.0,85,0.00,BKN,,0.11,85.1,WeatherDisplay:10.37,2013-08-13 22:36:00,
2013-08-13 18:41:00,84.5,79.5,29.77,NW,315,0.0,0.0,85,0.00,BKN,,0.11,64.4,WeatherDisplay:10.37,2013-08-13 22:41:00,
2013-08-13 18:46:00,84.5,79.5,29.77,NW,315,0.0,0.0,85,0.00,BKN,,0.11,54.0,WeatherDisplay:10.37,2013-08-13 22:46:00,
2013-08-13 18:51:00,84.5,79.5,29.76,NW,315,0.0,0.0,85,0.00,BKN,,0.11,38.0,WeatherDisplay:10.37,2013-08-13 22:51:00,
2013-08-13 18:56:00,84.3,79.3,29.76,NW,315,0.0,0.0,85,0.00,BKN,,0.11,21.9,WeatherDisplay:10.37,2013-08-13 22:56:00,
2013-08-13 19:01:00,84.3,79.3,29.76,NW,315,0.0,0.0,85,0.00,-RA,,0.11,8.1,WeatherDisplay:10.37,2013-08-13 23:01:00,
2013-08-13 19:11:00,83.3,76.5,29.77,WNW,297,0.0,0.0,80,0.19,-RA,,0.30,10.3,WeatherDisplay:10.37,2013-08-13 23:11:00,
2013-08-13 19:16:00,81.9,75.5,29.77,West,263,0.0,0.0,81,0.35,-RA,,0.47,24.1,WeatherDisplay:10.37,2013-08-13 23:16:00,
2013-08-13 19:21:00,81.0,75.0,29.79,WSW,244,0.0,0.0,82,0.42,-RA,,0.53,46.0,WeatherDisplay:10.37,2013-08-13 23:21:00,
2013-08-13 19:26:00,80.3,74.7,29.79,SW,214,0.0,0.0,83,0.43,-RA,,0.54,72.5,WeatherDisplay:10.37,2013-08-13 23:26:00,
2013-08-13 19:31:00,79.8,74.9,29.79,SSW,197,0.0,0.0,85,0.43,RA,,0.54,103.5,WeatherDisplay:10.37,2013-08-13 23:31:00,
2013-08-13 19:36:00,79.2,74.3,29.79,South,176,0.0,0.0,85,0.43,BKN,,0.54,135.7,WeatherDisplay:10.37,2013-08-13 23:36:00,
2013-08-13 19:41:00,78.6,74.1,29.79,SE,127,0.0,0.0,86,0.43,BKN,,0.54,143.8,WeatherDisplay:10.37,2013-08-13 23:41:00,
2013-08-13 19:46:00,78.0,73.5,29.79,East,99,0.0,0.0,86,0.43,BKN,,0.54,79.3,WeatherDisplay:10.37,2013-08-13 23:46:00,
2013-08-13 19:51:00,77.5,73.0,29.79,NE,38,0.0,0.0,86,0.43,BKN,,0.54,34.5,WeatherDisplay:10.37,2013-08-13 23:51:00,
2013-08-13 19:56:00,77.2,73.0,29.79,NNE,13,0.0,0.0,87,0.43,BKN,,0.54,16.1,WeatherDisplay:10.37,2013-08-13 23:56:00,
2013-08-13 20:01:00,76.8,73.0,29.79,NNE,13,0.0,0.0,88,0.43,BKN,,0.54,5.8,WeatherDisplay:10.37,2013-08-14 00:01:00,
2013-08-13 20:11:00,76.3,72.8,29.79,NNE,13,0.0,0.0,89,0.24,BKN,,0.54,0.0,WeatherDisplay:10.37,2013-08-14 00:11:00,
2013-08-13 20:16:00,76.1,72.6,29.79,NNE,13,0.0,0.0,89,0.08,BKN,,0.54,0.0,WeatherDisplay:10.37,2013-08-14 00:16:00,
2013-08-13 20:21:00,76.1,72.6,29.79,NNE,13,0.0,0.0,89,0.01,BKN,,0.54,0.0,WeatherDisplay:10.37,2013-08-14 00:21:00,
2013-08-13 20:26:00,76.0,72.9,29.79,NNE,13,0.0,0.0,90,0.00,BKN,,0.54,0.0,WeatherDisplay:10.37,2013-08-14 00:26:00,
2013-08-13 20:31:00,75.8,73.0,29.79,NNE,13,0.0,0.0,91,0.00,BKN,,0.54,0.0,WeatherDisplay:10.37,2013-08-14 00:31:00,
2013-08-13 20:36:00,75.8,73.0,29.79,NNE,13,0.0,0.0,91,0.00,BKN,,0.54,0.0,WeatherDisplay:10.37,2013-08-14 00:36:00,
2013-08-13 20:41:00,75.6,73.1,29.79,NNE,13,0.0,0.0,92,0.00,BKN,,0.54,0.0,WeatherDisplay:10.37,2013-08-14 00:41:00,
2013-08-13 20:46:00,75.6,73.1,29.79,NNE,13,0.0,0.0,92,0.00,BKN,,0.54,0.0,WeatherDisplay:10.37,2013-08-14 00:46:00,
2013-08-13 20:51:00,75.4,73.0,29.79,NNE,13,0.0,0.0,92,0.00,BKN,,0.54,0.0,WeatherDisplay:10.37,2013-08-14 00:51:00,
2013-08-13 20:56:00,75.4,72.9,29.79,NNE,13,0.0,0.0,92,0.00,BKN,,0.54,0.0,WeatherDisplay:10.37,2013-08-14 00:56:00,
2013-08-13 21:01:00,75.4,73.2,29.79,NNE,13,0.0,0.0,93,0.00,BKN,,0.54,0.0,WeatherDisplay:10.37,2013-08-14 01:01:00,
2013-08-13 21:11:00,75.3,73.1,29.80,NNE,13,0.0,0.0,93,0.00,BKN,,0.54,0.0,WeatherDisplay:10.37,2013-08-14 01:11:00,
2013-08-13 21:16:00,75.3,73.1,29.80,NNE,13,0.0,0.0,93,0.00,BKN,,0.54,0.0,WeatherDisplay:10.37,2013-08-14 01:16:00,
2013-08-13 21:21:00,75.3,73.1,29.81,NNE,13,0.0,0.0,93,0.00,BKN,,0.54,0.0,WeatherDisplay:10.37,2013-08-14 01:21:00,
2013-08-13 21:26:00,75.3,73.5,29.81,NNE,13,0.0,0.0,94,0.00,BKN,,0.54,0.0,WeatherDisplay:10.37,2013-08-14 01:26:00,
2013-08-13 21:31:00,75.3,73.5,29.81,NNE,13,0.0,0.0,94,0.00,BKN,,0.54,0.0,WeatherDisplay:10.37,2013-08-14 01:31:00,
2013-08-13 21:36:00,75.3,73.5,29.81,NNE,13,0.0,0.0,94,0.00,BKN,,0.54,0.0,WeatherDisplay:10.37,2013-08-14 01:36:00,
2013-08-13 21:41:00,75.3,73.5,29.81,NNE,13,0.0,0.0,94,0.00,BKN,,0.54,0.0,WeatherDisplay:10.37,2013-08-14 01:41:00,
2013-08-13 21:46:00,75.3,73.5,29.81,NNE,13,0.0,0.0,94,0.00,BKN,,0.54,0.0,WeatherDisplay:10.37,2013-08-14 01:46:00,
2013-08-13 21:51:00,75.3,73.5,29.81,NNE,13,0.0,0.0,94,0.00,BKN,,0.54,0.0,WeatherDisplay:10.37,2013-08-14 01:51:00,
2013-08-13 21:56:00,75.3,73.5,29.81,NNE,13,0.0,0.0,94,0.00,BKN,,0.54,0.0,WeatherDisplay:10.37,2013-08-14 01:56:00,
2013-08-13 22:01:00,75.3,73.5,29.81,NNE,13,0.0,0.0,94,0.00,BKN,,0.54,0.0,WeatherDisplay:10.37,2013-08-14 02:01:00,
2013-08-13 22:11:00,75.3,73.8,29.82,NNE,13,0.0,0.0,95,0.00,BKN,,0.54,0.0,WeatherDisplay:10.37,2013-08-14 02:11:00,
2013-08-13 22:16:00,75.1,73.6,29.82,NNE,13,0.0,0.0,95,0.00,BKN,,0.54,0.0,WeatherDisplay:10.37,2013-08-14 02:16:00,
2013-08-13 22:21:00,75.1,73.6,29.82,NNE,13,0.0,0.0,95,0.00,BKN,,0.54,0.0,WeatherDisplay:10.37,2013-08-14 02:21:00,
2013-08-13 22:26:00,75.1,73.6,29.82,NNE,13,0.0,0.0,95,0.00,BKN,,0.54,0.0,WeatherDisplay:10.37,2013-08-14 02:26:00,
2013-08-13 22:31:00,75.1,73.6,29.82,NNE,13,0.0,0.0,95,0.00,BKN,,0.54,0.0,WeatherDisplay:10.37,2013-08-14 02:31:00,
2013-08-13 22:36:00,75.1,73.6,29.83,NNE,13,0.0,0.0,95,0.00,BKN,,0.54,0.0,WeatherDisplay:10.37,2013-08-14 02:36:00,
2013-08-13 22:41:00,75.1,73.6,29.83,NNE,13,0.0,0.0,95,0.00,BKN,,0.54,0.0,WeatherDisplay:10.37,2013-08-14 02:41:00,
2013-08-13 22:51:00,75.1,73.6,29.82,NNE,13,0.0,0.0,95,0.00,BKN,,0.54,0.0,WeatherDisplay:10.37,2013-08-14 02:51:00,
2013-08-13 22:56:00,75.1,73.6,29.82,NNE,13,0.0,0.0,95,0.00,BKN,,0.54,0.0,WeatherDisplay:10.37,2013-08-14 02:56:00,
2013-08-13 23:01:00,75.1,73.6,29.82,NNE,13,0.0,0.0,95,0.00,SCT,,0.54,0.0,WeatherDisplay:10.37,2013-08-14 03:01:00,
2013-08-13 23:11:00,75.1,73.6,29.81,NNE,13,0.0,0.0,95,0.00,SCT,,0.54,0.0,WeatherDisplay:10.37,2013-08-14 03:11:00,
2013-08-13 23:16:00,75.1,73.6,29.81,NNE,13,0.0,0.0,95,0.00,SCT,,0.54,0.0,WeatherDisplay:10.37,2013-08-14 03:16:00,
2013-08-13 23:21:00,75.1,73.6,29.81,NNE,13,0.0,0.0,95,0.00,SCT,,0.54,0.0,WeatherDisplay:10.37,2013-08-14 03:21:00,
2013-08-13 23:26:00,75.1,73.9,29.81,NNE,13,0.0,0.0,96,0.00,SCT,,0.54,0.0,WeatherDisplay:10.37,2013-08-14 03:26:00,
2013-08-13 23:31:00,75.1,73.6,29.81,NNE,13,0.0,0.0,95,0.00,SCT,,0.54,0.0,WeatherDisplay:10.37,2013-08-14 03:31:00,
2013-08-13 23:36:00,75.1,73.9,29.82,NNE,13,0.0,0.0,96,0.00,SCT,,0.54,0.0,WeatherDisplay:10.37,2013-08-14 03:36:00,
2013-08-13 23:41:00,75.1,73.9,29.82,NNE,13,0.0,0.0,96,0.00,SCT,,0.54,0.0,WeatherDisplay:10.37,2013-08-14 03:41:00,
2013-08-13 23:46:00,75.1,73.9,29.82,NNE,13,0.0,0.0,96,0.00,SCT,,0.54,0.0,WeatherDisplay:10.37,2013-08-14 03:46:00,
2013-08-13 23:51:00,75.0,73.8,29.83,NNE,13,0.0,0.0,96,0.00,SCT,,0.54,0.0,WeatherDisplay:10.37,2013-08-14 03:51:00,
2013-08-13 23:56:00,74.9,73.7,29.83,NNE,13,0.0,0.0,96,0.00,SCT,,0.54,0.0,WeatherDisplay:10.37,2013-08-14 03:56:00,